Location: Spondin
(51.8528°N, 111.6118°W)
Time: 17:00:34
(UTC+00:00)

Vanguard 2 Rocket - Pass Details

Date: 03 June 2022
Orbit: 553 x 3323 km, 32.9° (Epoch: 02 July)

Event Time Altitude Azimuth Distance (km) Brightness Sun altitude
Rises 23:31:38 0° 270° (W) 7,289 12.5 34.8°
Reaches altitude 10° 23:38:02 10° 260° (W) 6,108 12.6 33.8°
Maximum altitude 23:51:06 25° 215° (SW) 4,251 11.1 31.8°
Drops below altitude 10° 00:00:58 10° 167° (SSE) 4,495 10.4 30.3°
Sets 00:04:46 0° 154° (SSE) 5,081 10.5 29.7°
